RH
27 31 32 26 26 26 23 22 19 17 15 12 8 4 1 2 1 2 3 3 5 3 4 5 7 11 7 14 38 41 37 50 56 62 73 77 74 65 49 35 35 52
27 31 32 26 26 26 24 23 20 17 16 13 10 5 2 2 1 2 2 2 5 4 5 6 6 11 10 10 20 18 23 54 71 68 68 75 81 79 67 46 30 32
27 31 31 26 26 27 25 24 21 18 17 14 11 7 3 2 1 2 2 1 3 3 5 7 7 10 10 11 15 16 25 46 62 63 58 64 78 83 78 59 37 28
27 32 31 27 27 27 26 25 23 19 17 15 13 9 5 3 1 1 1 1 2 2 4 5 6 8 8 10 14 20 28 37 54 64 53 49 61 71 79 67 42 33
27 32 32 27 27 28 26 26 24 21 18 16 15 12 8 5 2 1 1 1 2 1 3 3 4 5 6 7 9 12 18 26 43 55 48 44 46 52 71 70 42 31
26 32 33 28 28 28 26 27 25 22 19 17 16 14 11 7 4 2 1 1 1 1 1 2 2 3 3 4 6 6 9 15 23 30 35 41 42 44 57 56 38 29
26 32 33 29 29 28 27 28 27 23 20 18 17 16 13 10 6 3 2 1 1 1 1 2 2 2 3 2 3 4 5 8 11 18 31 37 32 36 41 35 30 30
26 32 34 30 30 29 27 28 28 24 21 18 18 18 14 12 8 5 3 1 1 1 1 2 1 1 2 2 2 3 3 5 6 11 29 40 30 25 30 30 28 29
26 32 35 31 30 30 28 29 29 25 21 18 18 18 16 13 11 8 5 3 1 1 1 1 1 1 2 2 2 2 2 3 4 4 18 39 39 24 21 29 31 28
26 32 36 32 31 31 28 29 29 25 21 19 18 19 18 16 13 11 8 5 2 2 1 1 1 1 1 2 2 2 2 2 3 3 4 19 36 30 18 23 32 30
25 32 36 34 32 32 29 30 30 26 21 19 19 20 19 18 17 14 11 8 5 3 2 1 1 1 1 2 1 1 2 2 1 4 2 4 17 21 14 16 26 29
25 32 36 34 33 32 30 31 30 26 22 21 21 22 22 21 20 17 14 11 8 5 3 2 2 2 1 1 2 1 2 2 1 2 3 3 5 7 6 8 14 20
25 32 37 35 34 32 30 31 30 25 23 23 23 24 24 24 23 20 18 15 12 9 6 4 3 2 2 1 1 1 1 1 2 1 2 2 3 3 3 3 6 10
25 31 37 35 34 33 31 32 30 26 25 25 26 26 26 26 26 24 22 19 17 14 12 10 7 4 4 2 1 2 1 1 1 1 2 2 2 3 2 2 3 4
25 30 37 36 33 32 32 32 30 27 27 27 28 29 29 30 30 30 30 29 27 24 21 17 14 10 7 5 3 2 1 1 1 1 2 2 1 2 2 2 2 2
25 30 37 36 33 33 33 32 30 28 29 29 30 32 33 34 35 35 37 37 36 36 33 29 24 18 13 9 6 3 2 1 1 1 1 1 2 2 2 2 2 2
25 31 37 36 33 34 33 32 30 29 30 31 33 35 35 36 37 37 37 38 39 40 40 39 34 28 21 15 9 6 3 1 1 1 1 1 2 2 1 2 2 1
25 31 37 35 33 34 32 31 31 30 32 34 35 36 37 37 38 38 38 38 39 39 41 44 43 36 28 20 14 8 4 3 1 1 1 1 1 2 1 1 2 1
25 31 36 35 34 34 32 31 32 32 34 36 36 37 38 39 39 40 40 39 38 38 41 45 47 43 35 26 18 12 6 4 2 1 1 1 1 2 1 1 2 2
25 32 36 34 33 33 31 31 33 34 35 36 37 38 39 40 40 40 40 40 38 38 40 45 49 47 41 33 24 17 11 6 4 2 1 1 1 1 2 1 1 2
24 32 36 34 33 32 31 32 35 35 36 37 38 40 40 40 41 40 40 39 38 37 38 44 49 49 45 39 31 23 17 11 8 5 2 2 2 1 1 2 1 1
23 32 36 33 33 32 31 34 36 35 36 38 39 40 40 40 40 40 40 39 38 37 38 42 48 50 48 44 37 30 23 18 13 10 8 5 3 1 1 1 2 1
22 31 36 34 32 32 32 35 37 36 37 39 39 40 40 40 40 39 38 38 37 36 38 41 46 50 50 47 43 37 31 27 21 15 12 8 3 2 2 1 1 1
21 30 36 35 32 33 34 36 36 37 38 39 39 40 40 39 39 38 37 37 36 35 36 39 44 50 50 48 46 44 40 36 30 24 18 12 7 4 3 3 2 1
18 28 36 36 33 33 35 37 37 37 38 40 40 40 40 39 39 38 37 35 34 33 35 38 41 47 51 48 46 47 46 43 39 32 24 16 12 9 6 5 3 2
17 25 35 36 34 34 36 37 38 38 38 40 40 40 40 40 39 38 36 34 32 31 33 37 39 44 50 51 48 47 48 48 45 39 30 23 18 14 12 9 5 3
Wind_Speed
17 18 19 18 18 17 18 19 19 19 18 18 17 17 17 16 16 16 17 19 19 21 22 23 24 24 25 24 21 21 22 21 21 22 21 22 22 23 24 24 23 22
17 18 18 18 17 17 17 18 19 19 18 18 17 17 17 17 16 16 16 18 18 19 20 21 22 23 24 24 22 22 22 20 19 20 20 20 21 21 22 23 23 21
16 17 18 18 17 17 17 18 19 19 18 18 17 17 17 17 17 16 16 17 17 18 18 19 20 20 21 22 22 22 21 19 18 19 19 20 19 19 20 22 23 21
16 17 17 17 17 16 16 17 18 18 18 18 17 17 17 17 17 17 16 16 16 16 17 17 18 18 19 20 20 19 19 18 18 17 18 19 18 18 18 20 22 22
15 16 17 17 16 16 16 17 17 18 18 17 17 17 17 18 18 18 17 17 17 16 16 15 16 17 17 18 19 18 18 18 18 17 17 18 18 18 17 18 20 21
15 16 17 16 16 16 16 16 17 17 17 17 17 17 17 18 18 18 18 17 17 16 15 15 15 15 16 17 17 17 18 18 18 18 18 17 17 17 17 17 18 19
14 15 16 16 16 15 15 16 16 17 17 17 17 17 17 18 18 18 18 17 17 16 16 15 15 15 15 16 17 17 17 18 18 19 18 18 18 16 15 16 17 17
13 15 16 15 15 15 15 16 16 16 17 16 16 17 17 17 18 18 18 18 17 17 16 16 15 15 15 16 16 17 16 17 17 18 18 18 18 17 15 15 16 16
13 14 15 15 15 15 15 15 15 16 16 16 16 16 17 17 18 18 18 18 18 18 18 17 16 16 16 16 16 17 17 16 16 17 17 17 17 17 16 15 15 16
12 13 14 14 14 15 15 14 15 15 15 16 16 16 16 17 17 18 18 19 19 19 19 18 18 17 16 16 16 16 16 16 15 16 16 17 17 17 16 16 15 15
12 12 14 14 14 14 14 14 14 14 15 15 16 16 16 17 17 18 18 19 19 20 20 19 19 18 17 17 16 16 16 16 16 15 15 16 16 16 16 16 16 15
11 12 13 14 14 14 14 14 14 14 14 15 15 16 16 17 18 18 19 19 20 20 20 20 20 19 19 18 17 16 16 16 16 16 15 15 15 16 16 16 15 15
10 11 13 13 13 14 13 13 13 13 13 14 15 16 17 17 18 19 19 20 20 20 20 20 20 20 19 19 18 18 17 16 16 16 15 15 15 15 15 15 15 14
9 11 12 13 13 13 13 12 12 12 13 14 15 16 17 18 19 20 20 20 20 20 20 20 20 20 20 20 20 19 19 18 17 16 15 15 15 15 15 15 15 14
9 10 12 12 13 13 12 11 11 12 13 14 15 17 18 19 20 21 21 22 21 21 21 21 21 21 21 21 21 20 20 19 18 17 16 15 15 14 14 15 15 15
9 10 11 12 12 12 11 10 11 11 12 14 16 17 19 20 21 22 23 23 23 23 23 22 22 21 21 21 21 21 20 20 19 18 17 16 15 15 14 14 14 15
8 9 11 11 11 11 10 9 10 10 12 14 16 18 19 20 22 23 24 25 25 25 25 24 23 22 21 21 21 21 20 20 19 18 18 17 16 15 15 15 15 15
8 9 10 11 11 9 9 8 9 10 12 14 16 18 19 20 22 24 25 26 26 27 26 25 24 23 22 22 21 21 20 19 18 18 17 17 16 16 16 16 16 15
7 8 9 10 10 8 7 7 8 9 12 14 15 17 18 20 21 23 24 25 26 27 27 26 25 23 23 22 22 21 20 19 18 18 17 16 16 16 16 16 16 16
7 7 8 9 8 6 6 6 7 9 11 13 14 15 17 19 20 22 23 24 25 26 27 27 25 24 23 23 22 21 21 20 19 18 17 16 16 17 17 17 16 16
6 6 7 8 6 5 5 6 6 8 10 12 13 14 16 17 19 20 21 23 24 26 27 27 26 24 23 23 22 22 21 20 19 18 17 16 17 17 17 17 17 16
6 5 6 6 4 3 4 5 6 7 9 10 11 12 14 16 17 19 20 21 23 25 26 26 26 24 22 22 21 21 20 19 19 18 17 17 17 17 17 17 17 17
6 5 5 5 2 2 3 4 4 5 7 8 9 11 13 15 16 17 19 20 22 23 25 25 25 23 22 20 20 20 19 19 18 17 17 17 17 17 17 17 17 17
6 5 4 4 2 1 2 3 3 3 4 6 7 9 12 14 16 17 18 19 20 22 23 24 24 23 21 19 19 18 18 18 18 17 17 17 17 16 16 17 17 17
7 5 4 4 3 3 3 2 2 2 2 4 6 8 11 13 15 16 18 19 20 21 22 23 23 22 21 19 18 18 18 17 17 17 18 17 17 17 17 17 18 18
8 6 5 5 4 4 4 4 3 2 1 3 6 8 11 13 15 16 17 19 19 20 20 21 22 22 20 19 18 18 18 18 18 18 18 17 17 17 18 18 19 19
Wind_Direction
9 8 8 9 12 13 15 14 12 12 12 12 15 16 17 19 20 22 24 25 24 21 20 19 18 19 20 21 21 18 18 18 17 17 17 18 19 21 23 23 23 26
10 8 7 10 13 14 16 14 12 12 12 13 16 17 18 20 19 20 23 25 25 23 21 20 18 17 17 19 21 20 20 20 16 14 14 16 17 18 20 22 23 24
10 8 8 10 13 14 16 15 13 13 13 14 16 18 19 20 20 20 22 24 26 25 23 21 18 17 15 16 18 18 19 20 16 12 11 12 14 16 18 21 21 23
9 7 9 11 13 15 17 16 14 13 13 14 17 19 20 21 21 20 21 22 25 26 25 23 20 16 14 14 16 16 15 15 16 14 12 11 10 12 17 19 19 22
10 8 9 11 13 15 17 17 15 14 14 15 18 20 21 22 22 22 21 21 22 24 25 25 22 17 14 13 15 15 13 12 14 14 14 14 11 9 13 17 18 21
10 9 9 11 13 15 17 17 16 15 15 16 19 21 22 24 24 23 22 21 20 20 22 23 23 19 15 13 14 15 13 12 12 13 13 15 15 10 9 12 15 20
10 10 9 11 13 14 17 17 16 16 16 18 20 22 23 25 25 24 23 21 19 18 18 19 20 19 16 14 13 14 14 12 11 11 11 14 16 13 8 9 14 17
11 10 10 11 13 14 17 17 16 16 18 20 22 23 24 25 26 24 23 21 18 17 16 15 15 15 15 13 12 13 14 13 12 11 10 11 14 15 12 13 14 14
11 11 10 11 12 14 16 17 17 17 19 22 24 25 25 25 26 25 23 21 19 17 15 14 13 12 12 11 10 10 11 12 12 12 10 9 11 13 15 18 18 13
11 10 10 11 11 13 16 17 17 18 20 24 26 27 26 26 25 25 23 22 20 18 17 15 14 12 10 10 9 8 8 9 11 12 11 9 9 10 13 21 23 18
11 10 10 11 11 11 15 17 19 19 23 26 28 29 28 27 26 26 25 24 22 20 18 17 15 14 12 10 10 9 7 7 9 10 10 9 7 6 10 19 24 23
9 10 10 11 10 10 13 18 20 22 26 30 31 31 30 28 28 28 28 26 24 22 20 19 18 16 15 13 12 11 9 8 8 9 9 8 5 4 6 14 21 22
8 9 10 10 9 8 13 19 22 24 30 34 34 34 33 31 31 31 30 29 27 24 22 21 20 19 18 16 14 13 13 11 8 7 7 6 5 3 3 9 17 21
7 9 10 9 7 7 13 21 24 27 33 36 37 37 37 36 36 35 34 33 30 28 26 24 22 21 19 17 15 14 13 12 9 6 5 5 5 4 2 5 13 20
6 9 10 8 5 6 14 23 26 30 35 39 40 41 41 41 40 39 37 36 33 31 28 26 24 23 21 18 16 13 12 11 9 5 4 4 5 4 4 4 9 15
3 9 10 7 3 6 17 27 29 32 39 43 45 46 46 46 44 43 40 38 35 32 29 27 25 23 22 20 17 14 12 10 8 5 4 4 4 4 5 5 6 10
1 8 9 6 2 6 21 31 32 37 45 49 50 50 50 49 46 44 41 38 35 32 29 26 23 22 21 21 18 15 12 10 7 6 5 3 3 3 5 6 6 7
360 7 8 4 1 10 28 36 37 46 53 55 55 54 51 48 44 41 39 36 32 30 27 24 22 21 20 20 19 16 13 10 8 7 6 5 4 4 6 6 6 6
356 5 7 3 2 16 38 43 46 57 63 61 58 54 49 44 40 38 35 33 30 27 25 23 22 21 20 19 17 15 13 11 11 11 9 8 8 9 9 8 7 7
351 3 4 2 5 25 47 54 61 69 70 66 59 52 46 41 37 34 32 30 28 25 23 22 22 21 20 19 17 14 12 11 12 13 12 11 13 13 12 10 8 8
343 357 2 1 10 38 60 69 75 77 74 67 57 48 43 38 33 31 29 28 27 25 23 21 21 20 19 18 16 13 12 11 11 11 10 12 15 15 13 11 9 8
332 348 355 358 10 52 76 85 88 83 75 64 53 44 38 34 30 28 26 26 25 25 24 21 20 20 19 17 15 13 12 11 10 9 10 12 15 14 12 11 10 9
321 334 344 349 0 78 96 104 101 86 72 59 46 37 33 31 28 25 24 25 24 24 24 22 20 19 19 17 16 14 13 12 11 11 12 14 15 13 10 10 9 8
306 316 324 329 312 179 140 132 120 92 67 49 35 28 27 27 25 23 22 23 24 24 23 22 20 19 18 17 16 15 15 14 13 14 15 15 14 13 11 10 9 7
293 296 300 302 274 222 199 186 164 116 52 30 19 15 18 21 21 19 19 20 22 22 21 21 19 18 17 15 14 15 16 15 15 15 15 14 14 13 12 11 10 8
284 281 280 279 264 238 226 224 220 220 334 358 359 1 8 14 16 15 15 17 18 19 18 18 17 16 14 13 12 13 14 15 16 15 13 12 12 11 12 12 9 8